National Weather Service United States Department of Commerce

Iowa Surface Observations

    
                        
841
ASUS43 KDMX 130206
RWRIA

WEATHER ROUNDUP FOR IOWA
NATIONAL WEATHER SERVICE DES MOINES IA
900 PM CDT FRI JUL 12 2024

NOTE: "FAIR" INDICATES FEW OR NO CLOUDS BELOW 12,000 FEET WITH NO
SIGNIFICANT WEATHER AND/OR OBSTRUCTIONS TO VISIBILITY.

* - THESE STATIONS ARE NOT NWS STATIONS...THUS NOT UNDER NWS
QUALITY CONTROL. THEY ALSO DO NOT REPORT WEATHER SUCH
AS PRECIPITATION OR FOG.

IAZ001>003-012>014-020>022-031>034-043>046-130300-
NORTHWEST IOWA

CITY SKY/WX TMP DP RH WIND PRES REMARKS
CARROLL * N/A N/A N/A N/A SE6 30.02S
CHEROKEE * CLEAR 79 73 83 SE6 30.00S HX 82 TC 26
DENISON * PTCLDY N/A N/A N/A SE5 30.03S
LE MARS * CLEAR 81 75 83 SE7 29.97S HX 86 TC 27
MAURICE * CLEAR 79 75 89 SE9 29.97S HX 82 TC 26
SHELDON * CLEAR 79 73 83 SE8 29.98F HX 82 TC 26
SIOUX CITY PTCLDY 82 73 74 SE9 29.97S HX 87 TC 28
SPENCER CLEAR 80 70 71 S10 30.01S HX 83 TC 27
STORM LAKE * N/A 77 75 94 SE8 30.03S TC 25
$$

IAZ055>058-069>071-079>083-090>094-130300-
SOUTHWEST IOWA

CITY SKY/WX TMP DP RH WIND PRES REMARKS
ATLANTIC * PTCLDY 81 73 78 SE7 30.00F HX 85 TC 27
AUDUBON * MOCLDY 77 73 88 CALM 30.03F TC 25
CLARINDA * CLEAR 81 N/A N/A SE5 30.03S TC 27
COUNCIL BLFS * PTCLDY 81 77 89 S8 29.98S HX 88 TC 27
CRESTON * PTCLDY 77 75 94 SE5 30.05S TC 25
HARLAN * PTCLDY 79 75 89 SE5 30.02R HX 82 TC 26
LAMONI CLEAR 78 73 84 SE6 30.04S HX 81 TC 26
RED OAK * PTCLDY 81 73 78 SE7 30.01S HX 85 TC 27
SHENANDOAH * CLEAR 79 75 89 SE6 29.98F HX 82 TC 26
$$

IAZ047>049-059>061-072>074-084-130300-
CENTRAL IOWA

CITY SKY/WX TMP DP RH WIND PRES REMARKS
AMES CLEAR 78 71 79 SE6 30.04S HX 80 TC 26
ANKENY * CLEAR 79 73 83 SE5 30.04S HX 82 TC 26
BOONE * CLEAR N/A N/A N/A SE7 30.03S
CHARITON * CLEAR 79 73 83 SE6 30.04S HX 82 TC 26
DES MOINES PTCLDY 83 72 69 SE9 30.04R HX 88 TC 28
GRINNELL* PTCLDY 78 72 81 CALM 30.08S HX 81 TC 26
KNOXVILLE * CLEAR 81 73 78 CALM 30.04F HX 85 TC 27
MARSHALLTOWN CLEAR 76 70 82 SE6 30.06S TC 24
NEWTON * CLEAR 79 79 100 SE7 30.05S HX 83 TC 26
PELLA * PTCLDY 78 73 82 SE5 30.06S HX 81 TC 26
$$

IAZ004>006-015-016-023>025-035-036-130300-
NORTH CENTRAL IOWA

CITY SKY/WX TMP DP RH WIND PRES REMARKS
ALGONA * CLEAR N/A N/A N/A SE9 30.03S
CLARION * CLEAR N/A N/A N/A SE8 30.05F
ESTHERVILLE CLEAR 79 69 71 S10 30.02S HX 81 TC 26
FORT DODGE * CLEAR 79 71 76 SE6 30.04F HX 82 TC 26
MASON CITY CLEAR 74 68 81 SE6 30.07F TC 23
FOREST CITY * CLEAR 73 68 83 SE6 30.06S TC 23
IOWA FALLS * CLEAR 74 69 83 SE6 30.07F TC 24
$$

IAZ007>011-017>019-026>030-037>042-050>054-066-130300-
NORTHEAST IOWA

CITY SKY/WX TMP DP RH WIND PRES REMARKS
CEDAR RAPIDS PTCLDY 74 69 85 E7 30.08R TC 23
CHARLES CITY * PTCLDY 75 70 83 SE6 30.07F TC 24
CLINTON * CLEAR 74 71 91 SE3 30.12R TC 23
DECORAH * CLEAR 73 68 83 SE3 30.08F TC 23
DUBUQUE CLEAR 74 66 76 E5 30.13R TC 23
MONTICELLO * CLEAR 73 70 88 E5 30.09R TC 23
OELWEIN * MOCLDY 73 72 94 SE6 30.09F TC 23
WATERLOO PTCLDY 79 67 66 SE7 30.06S HX 81 TC 26
$$

IAZ064-065-067-068-078-130300-
EAST CENTRAL IOWA

CITY SKY/WX TMP DP RH WIND PRES REMARKS
DAVENPORT PTCLDY 75 67 76 E5 30.12R TC 24
IOWA CITY PTCLDY 78 68 71 SE6 30.09R HX 80 TC 26
MT. PLEASANT * PTCLDY 75 70 83 SE3 30.09R TC 24
MUSCATINE * PTCLDY 79 73 83 SE5 30.09R HX 82 TC 26
QUAD CITIES CLEAR 75 69 81 E3 30.09R TC 24
$$

IAZ062-063-075>077-085>089-095>099-130300-
SOUTHEAST IOWA

CITY SKY/WX TMP DP RH WIND PRES REMARKS
BURLINGTON CLEAR 78 71 79 SE5 30.08S HX 80 TC 26
FAIRFIELD * PTCLDY 77 72 83 SE6 30.07S TC 25
FORT MADISON * CLEAR 77 72 83 E5 30.08S TC 25
KEOKUK * CLEAR 79 75 89 SE6 30.08R HX 82 TC 26
OSKALOOSA * CLEAR 79 73 80 SE6 30.07S HX 82 TC 26
OTTUMWA CLEAR 77 72 84 SE7 30.03S TC 25
WASHINGTON * CLEAR 75 72 88 SE7 30.07R TC 24
$$

ABBREVIATIONS USED IN REMARKS
TC - TEMPERATURES IN CELSIUS
WCI - WIND CHILL INDEX
HX - HEAT INDEX
VSB - VISIBILITY
$$




Road Conditions

Image Courtesy of the Iowa Environmental Mesonet

Midwest Surface Map

Midwest Surface Map

 

U.S. Surface Map

U.S. Surface Map

Iowa Weather Summary

    
                        
443
AWUS83 KDMX 121054
RWSDMX
IAZ004>007-015>017-023>028-033>039-044>050-057>062-070>075-081>086-
092>097-121500-

Weather Summary for Iowa
National Weather Service Des Moines IA
554 AM CDT Fri Jul 12 2024

Today:

Clear skies overnight have allowed areas of fog to develop across far
southern Iowa early this morning. This area of fog will dissipate
quickly by shortly after sunrise. Otherwise, today will be dry and
sunny with seasonal temperatures. Winds will be southeast at 10 to 15
mph.

Tonight and beyond:

A few isolated showers and thunderstorms will possible east and
southwest late tonight into Saturday morning. The severe weather
threat is low. Aside from the spotty overnight rain chances, the BIG
story for the weekend will be the HEAT with high temperatures climbing
in the upper 80s and 90s. These temperatures along with increasingly
humid conditions will result in heat index values near and exceeding
100F at most locations. Fortunately, the warm temperatures only stick
around a few days, with highs returning to normal by the middle of
next week.

$$


River Summary

    
                        
099
SRUS43 KDMX 130138
RVADMX
IAC001-003-007-009-013-015-017-023-025-027-029-033-039-047-049-051-053-
063-069-073-075-077-079-081-083-091-099-109-117-121-123-125-127-135-147-
151-153-157-159-161-169-171-173-175-179-181-185-187-189-195-197-140145-

Hydrologic Summary
National Weather Service Des Moines IA
837 PM CDT Fri Jul 12 2024

Hourly river stages. Time is in Central Time. For the latest river forecasts,
flood warnings and flood statements refer to weather.gov/desmoines.

Refer to the end of this product for an explanation of the columns.

Cur Obs Flood 6hr 24hr Obs
Location FS Stg Category Chg Chg Date/Time

...Mississippi River Basin...

.Wapsipinicon River Basin...

Wapsipinicon River
Tripoli 15.0 10.14 Non-Flood -0.10 -0.48 0712/1945

.Iowa River Basin...

West Main Drainage Ditch 1-2
Britt

Iowa River
Rowan 12.5 8.24 Non-Flood -0.18 -0.81 0712/1900
Steamboat Rock 11.0 8.30 Non-Flood -0.14 -0.63 0712/1900
Marshalltown 19.0 15.26 Non-Flood -0.20 -0.55 0712/1900
Tama Hwy E49 12.5 9.81 Non-Flood -0.14 -0.08 0712/1900
Tama US 63 20.0 14.95 Non-Flood -0.14 -0.17 0712/2000
Chelsea

South Fork Iowa River
Blairsburg 4.74 -0.03 -0.09 0712/1900
New Providence 3.99 -0.08 -0.28 0712/1845

Timber Creek
Marshalltown 14.0 4.16 Non-Flood -0.02 -0.17 0712/1900

Richland Creek
Haven 11.62 0.00 -0.08 0712/1900

Stein Creek
Clutier 67.41 -0.08 -0.40 0712/1930

Salt Creek
Elberon 16.0 8.52 Non-Flood -0.20 -2.12 0712/1900

Walnut Creek
Hartwick 14.0 1.72 Non-Flood -0.03 -0.28 0712/1900

Deer Creek
Toledo 5.60 -0.11 -0.59 0712/2000

Deep River
Deep River 66.98 -0.03 -0.07 0712/1915

.Cedar River Basin...

Cedar River
Waverly 12.0 5.12 Non-Flood -0.01 -0.01 0712/1915
Janesville 13.0 3.88 Non-Flood -0.03 -0.23 0712/1945
Cedar Falls 89.0 85.80 Non-Flood -0.07 -0.43 0712/1845
Waterloo 13.0 9.04 Non-Flood -0.04 -0.26 0712/1900

West Fork Cedar River
Kesley
Kesley Hickory Ave--IFC 947.88 -0.18 -0.80 0712/2000
Finchford 17.0 11.26 Non-Flood -0.08 -0.09 0712/1945

Spring Creek (North Central Iowa)
Mason City US 65 81.26 -0.05 -0.15 0712/1945

Winnebago River
Mason City 10.0 7.74 Non-Flood -0.10 -0.35 0712/1930
Rockford

Clear Lake
Clear Lake 5.27 0.04 0.00 0712/1900

Willow Creek
Mason City US 18 Bus 87.20 -0.06 -0.25 0712/1845

Shell Rock River
Northwood
Nora Springs
Rockford Foothill Ave--IFC 973.50 Record -0.10 -0.43 0712/2000
Marble Rock 4.0
Marble Rock 290th St--IFC 951.57 -0.07 -0.37 0712/1945
Shell Rock 12.0 10.87 Non-Flood -0.06 -0.20 0712/1845

Beaver Creek (Northeast Iowa)
New Hartford 12.5 4.13 Non-Flood -0.08 -0.31 0712/1900

Black Hawk Creek
Hudson 14.0 6.99 Non-Flood -0.08 -0.35 0712/1845

Wolf Creek
Dysart 12.0 3.88 Non-Flood -0.08 -0.30 0712/1915

.Skunk River Basin...

Mud Lake Drainage Ditch 71 (North Central Iowa)
Jewell 81.17 -0.02 -0.10 0712/1915

Keigley Branch (Central Iowa)
Story City 82.78 -0.03 -0.07 0712/1930

South Skunk River
Randall Hwy R61--IFC 975.38 -0.01 -0.18 0712/2000
Ames Hwy E18 2.51 -0.06 -0.29 0712/1900
Ames McFarland Park 180th 2.35 -0.06 -0.23 0712/1900
Ames W Riverside Rd 12.5 4.02 Non-Flood -0.02 -0.16 0712/1900
Ames E 13th St--IFC 878.52 0.02 -0.13 0712/1945
Ames US 30 21.5 11.12 Non-Flood -0.05 -0.21 0712/1900
Colfax 18.0 8.89 Non-Flood -0.06 -0.28 0712/1945
Oskaloosa 24.5 11.67 Non-Flood -0.12 -0.56 0712/1930

Ioway Creek
Story City 120th St--IFC 970.68 0.01 0.00 0712/1945
Ames Hwy E18
Gilbert 160th St--IFC 929.04 -0.01 -0.01 0712/2000
Ames Cameron School Rd 1.35 -0.02 -0.08 0712/1900
Ames Stange Rd--IFC 888.14 -0.03 0.05 0712/2000
Ames Lincoln Way 10.0 1.70 Non-Flood -0.02 -0.07 0712/1900
Ames S Duff Ave--IFC 872.03 0.05 -0.07 0712/1945

Indian Creek
Mingo 4.33 -0.04 -0.16 0712/1915

Middle Creek
Lacey 75.71 -0.05 -0.12 0712/1900

.Des Moines River Basin...

West Fork Des Moines River
Estherville 10.0 10.36 Minor 0.02 -0.41 0712/1900
Emmetsburg 11.0 10.63 Non-Flood -0.10 -0.56 0712/1915
Humboldt 10.0 10.97 Minor -0.09 -0.49 0712/1915

Pilot Creek
Rolfe 3.58 -0.06 -0.18 0712/1915

East Fork Des Moines River
Algona 17.0 14.91 Non-Flood -0.08 -0.34 0712/1915
Dakota City 20.0 13.85 Non-Flood -0.14 -0.64 0712/1900

Des Moines River
Fort Dodge 10.5 9.56 Non-Flood -0.14 -0.60 0712/1900
Stratford 19.0 15.03 Non-Flood -0.22 -1.02 0712/1900
Des Moines 2nd Ave 23.0 20.57 Non-Flood -0.02 0.09 0712/1915
Des Moines SE 6th St 24.0 20.73 Non-Flood 0.00 -0.02 0712/1900
Swan 56.43 0.28 1.05 0712/1915
Tracy 14.0 4.40 Non-Flood 0.00 -0.09 0712/1915
Eddyville 63.0 51.08 Non-Flood -0.01 -0.24 0712/1915
Ottumwa 11.5 3.26 Non-Flood 0.11 -0.04 0712/1950

Saylorville Reservoir
Pool 884.0 879.81 Non-Flood -0.01 0.04 0712/2000
Tail 14.02 -0.01 -0.02 0712/1900
Normal Pool 836.0

Red Rock Reservoir
Pool 780.0 755.61 Non-Flood 0.30 1.14 0712/2015
Tail 686.83 0.00 0.00 0712/1915
Normal Pool 742.0

Lizard Creek
Fort Dodge 5.44 -0.03 -0.07 0712/1915

Boone River
Goldfield 10.58 -0.13 -0.58 0712/1915
Webster City 14.0 4.74 Non-Flood -0.15 -0.67 0712/1900

White Fox Creek
Clarion 85.07 -0.11 -0.43 0712/1845

Bluff Creek (Central Iowa)
Pilot Mound 80.01 -0.01 -0.05 0712/1915

Big Creek Ponding Area
Polk City 36.12 0.03 0.08 0712/2015

Big Creek Lake
Polk City 20.54 0.05 0.31 0712/2015

Beaver Creek (Central Iowa)
Woodward 11.34 -0.02 -0.08 0712/2015
Grimes 14.0 3.61 Non-Flood -0.01 -0.09 0712/1915

Fourmile Creek
Ankeny US 69
Ankeny NE 47th St--IFC 907.00 0.00 -0.06 0712/1945
Ankeny NE 86th Ave 11.0 1.79 Non-Flood -0.03 -0.07 0712/1915
Altoona NE 54th Ave--IFC 823.39 0.02 -0.09 0712/2000
Altoona I-80
Des Moines Easton Blvd 12.5 3.90 Non-Flood -0.02 -0.09 0712/1930
Pleasant Hill Vandalia Rd- 775.36 0.02 -0.05 0712/2000

North River
Norwalk Hwy R57 22.0 7.53 Non-Flood -0.10 -0.51 0712/1915

Middle River
Indianola 23.0 8.10 Non-Flood -0.04 -0.15 0712/1915

South River
Ackworth 29.0 5.57 Non-Flood 0.02 0.08 0712/1915

White Breast Creek
Melcher-Dallas 23.0 6.03 Non-Flood 0.00 -0.02 0712/1915

English Creek
Knoxville 21.0 8.03 Non-Flood -0.02 -0.06 0712/1915

Cedar Creek
Bussey 25.0 4.45 Non-Flood -0.01 -0.05 0712/1915

Bear Creek
Ottumwa US 34 79.21 -0.02 -0.02 0712/1945

.Raccoon River Basin...

North Raccoon River
Sac City 8.18 -0.01 -0.07 0712/1915
Lanesboro 9.31 -0.04 -0.12 0712/1915
Jefferson 19.0 5.95 Non-Flood -0.03 -0.09 0712/1915
Perry 15.0 5.43 Non-Flood 0.00 -0.04 0712/2015

Black Hawk Lake
Lake View 7.62 0.00 -0.01 0712/1915

Brushy Fork Creek (Western Iowa)
Templeton 67.15 -0.06 -0.02 0712/1900

Middle Raccoon River Tributary
Carroll 15.82 -0.03 -0.04 0712/1915

Middle Raccoon River
Bayard 9.41 -0.03 -0.10 0712/1915
Panora 11.0 4.41 Non-Flood 0.02 -0.01 0712/1915

Lake Panorama
Panora 45.71 0.01 0.02 0712/1915

South Raccoon River
Redfield 20.0 3.03 Non-Flood -0.02 -0.07 0712/1845

Raccoon River
Van Meter Hwy R16 17.0 4.28 Non-Flood -0.04 -0.16 0712/1900
West Des Moines 28.30 -0.05 -0.17 0712/1845
Des Moines IA 28 36.0 22.19 Non-Flood -0.04 -0.12 0712/1915
Des Moines Fleur Dr 12.0 4.13 Non-Flood -0.03 -0.13 0712/1845

Walnut Creek (Central Iowa)
Waukee 156th St 9.0
Urbandale 142nd St
Clive NW 128th St--IFC 861.99 -0.01 -0.11 0712/2000
Clive I-80/35 9.0 3.41 Non-Flood 0.00 0.00 0712/2016
Clive NW 100th St--IFC 840.13 0.04 0.02 0712/2000
Des Moines 63rd St 14.0 3.46 Non-Flood -0.02 -0.07 0712/1845

Little Walnut Creek (Central Iowa)
Clive 156th St--IFC 897.29 -0.02 -0.07 0712/2000

North Walnut Creek (Central Iowa)
Urbandale 92nd Dr 2.76 0.09 -0.36 0712/1958
Urbandale Hickman Rd--IFC 834.17 -0.01 -0.02 0712/1945
Windsor Heights College Dr 825.51 0.01 -0.02 0712/2000

Jordan Creek
West Des Moines

Buttrick Creek
Grand Junction 13.0 5.66 Non-Flood 0.00 0.05 0712/2015

...Missouri River Basin...

.Nishnabotna River Basin...

East Nishnabotna River
Atlantic 19.0 3.38 Non-Flood -0.01 -0.07 0712/1900

.Chariton River Basin...

West Nodaway River
Massena IA 148 66.65 -0.04 -0.05 0712/1915

East Fork 102 River
Bedford 24.0 11.18 Non-Flood -0.02 -0.23 0712/1945

Thompson River
Davis City 12.0 1.76 Non-Flood -0.04 0.18 0712/1900

Chariton River
Chariton 19.5 4.21 Non-Flood -0.02 -0.16 0712/1945
Moulton 36.0 18.68 Non-Flood 0.01 0.11 0712/1945

South Fork Chariton River
Promise City 25.0 3.00 Non-Flood -0.01 -0.02 0712/1945

Rathbun Reservoir
Pool 926.0 905.84 Non-Flood 0.00 0.00 0712/1945
Tail 2.34 -0.01 -0.04 0712/1900
Normal Pool 904.0

Cooper Creek (South Central Iowa)
Centerville 7.82 -0.03 -0.20 0712/1930

Key: FS=Flood stage (feet)
Cur Stg=Current stage (feet)
Obs Flood Category=Observed stage flood category (if applicable)--may be
different than forecast flood category
6hr Chg=6-hour change (feet)
24hr Chg=24-hour change (feet)
Obs Time=Date/time observation was taken (local time)

This product is computer generated and is not monitored directly for quality
control. Data sources include the U.S. Geological Survey, U.S. Army Corps of
Engineers, Iowa Flood Center, state agencies and the National Weather
Service.

$$


Central Iowa Observed Snowfall

The following information (mostly PDF files) is to be considered preliminary and unofficial.  Official or certified surface observing information can be obtained from the National Climatic Data Center at https://www.ncdc.noaa.gov.

In the pdf files below, look for the snowfall column, not the snow-depth.

 

Des Moines Airport NWS Office in Johnston Waterloo
(current month updated daily)  (generally updated Monday - Friday) (current month updated daily)
 April 2018  April 2018  April 2018
 March 2018  March 2018  March 2018
 February 2018  February 2018  February 2018
 January 2018  January 2018  January 2018
 December 2017  December 2017  December 2017
 November 2017  November 2017  November 2017
 March 2017  March 2017  March 2017
 February 2017  February 2017  February 2017
 January 2017  January 2017  January 2017
 December 2016  December 2016  December 2016
 November 2016  November 2016  November 2016
 October 2016  October 2016  October 2016
 March 2016  March 2016  March 2016
 February 2016  February 2016  February 2016
 January 2016  January 2016  January 2016
 December 2015  December 2015  December 2015
 November 2015  November 2015  November 2015
 March 2015  March 2015  March 2015
 February 2015  February 2015  February 2015
 January 2015  January 2015  January 2015
 December 2014  December 2014  December 2014
 November 2014  November 2014  November 2014
     
Additional Past Weather Information for Central Iowa can be found by clicking here.

CoCoRAHS Rainfall Reports

    
                        
042
SXUS53 KDMX 121407
LCODMX

COCORAHS PRECIPITATION SUMMARY
NATIONAL WEATHER SERVICE DES MOINES IA
901 AM CDT FRI JUL 12 2024

COCORAHS PRECIPITATION REPORTS FOR THE PREVIOUS 24 HOURS
ENDING AROUND 7 AM LOCAL TIME
THESE REPORTS ARE CONSIDERED SUPPLEMENTAL AND UNOFFICIAL

.B DMX 0712 C DH07/PP/SF/SD/SW
:
:
:CENTRAL IOWA
:
: SNOW SNOW WATER
: PCPN FALL DEPTH EQUIV
:
IA-CS-07 : ANITA 0.6 S : T / MM / MM / MM
IA-DL-38 : ADEL 0.2 N : 0.00 / 0.0 / MM / MM
IA-MR-05 : ALBIA 2.9 N : 0.00 / 0.0 / MM / MM
IA-KS-04 : ALGONA 0.7 SE : 0.00 / 0.0 / MM / MM
IA-WY-10 : ALLERTON 0.8 S : 0.00 / 0.0 / MM / MM
IA-WY-07 : ALLERTON 5.1 E : 0.00 / 0.0 / MM / MM
IA-SR-45 : AMES 2.0 WNW : 0.00 / 0.0 / MM / MM
IA-PK-97 : ANKENY 1.5 NNE : 0.00 / 0.0 / 0.0 / MM
IA-DV-07 : BLOOMFIELD 4.2 WNW : 0.00 / 0.0 / MM / MM
IA-DV-10 : BLOOMFIELD 8.4 NNE : 0.00 / 0.0 / MM / MM
IA-DV-03 : BLOOMFIELD 8.6 SSW : 0.00 / 0.0 / MM / MM
IA-KS-05 : BURT 0.5 NW : 0.00 / 0.0 / MM / MM
IA-WR-27 : CARLISLE 4.5 SSE : 0.00 / 0.0 / MM / MM
IA-BH-07 : CEDAR FALLS 1.4 SSE : 0.00 / 0.0 / MM / MM
IA-LC-12 : CHARITON 2.0 WSW : 0.00 / 0.0 / MM / MM
IA-WB-15 : CLARE 5.2 WNW : 0.00 / 0.0 / MM / MM
IA-UN-05 : CROMWELL 0.1 S : 0.00 / 0.0 / MM / MM
IA-PK-03 : DES MOINES 4.5 WNW : 0.00 / 0.0 / MM / MM
IA-DV-14 : DRAKESVILLE 4.7 WNW : 0.00 / 0.0 / MM / MM
IA-DV-13 : DRAKESVILLE 7.4 NNW : 0.00 / 0.0 / MM / MM
IA-HD-05 : ELDORA 1.2 ENE : 0.00 / 0.0 / MM / MM
IA-PC-08 : FONDA 4.5 NNW : 0.00 / 0.0 / MM / MM
IA-WB-03 : FORT DODGE 1.6 ENE : 0.00 / 0.0 / MM / MM
IA-WB-17 : FORT DODGE 1.7 NNW : 0.00 / 0.0 / MM / MM
IA-WR-05 : HARTFORD 1.0 E : 0.00 / 0.0 / 0.0 / MM
IA-GY-06 : HOLLAND 4.4 NW : 0.00 / 0.0 / MM / MM
IA-WR-07 : INDIANOLA 0.8 SSW : 0.00 / 0.0 / MM / MM
IA-PK-93 : JOHNSTON 2.6 W : 0.00 / 0.0 / 0.0 / MM
IA-PK-21 : JOHNSTON 3.7 NNW : 0.00 / 0.0 / 0.0 / MM
IA-BH-29 : LA PORTE CITY 5.1 NNW : 0.00 / 0.0 / MM / MM
IA-DC-09 : LEON 4.2 E : 0.00 / 0.0 / MM / MM
IA-DC-08 : LINEVILLE 3.8 W : 0.00 / 0.0 / MM / MM
IA-MR-06 : LOVILIA 0.6 SSE : 0.00 / 0.0 / 0.0 / 0.00
IA-CH-07 : LYTTON 4.0 NE : 0.00 / 0.0 / MM / MM
IA-BN-20 : MADRID 0.5 NE : 0.00 / 0.0 / MM / MM
IA-PW-06 : MALCOM 7.7 NNW : 0.00 / 0.0 / MM / MM
IA-CR-07 : MANNING 0.2 ESE : 0.00 / 0.0 / MM / MM
IA-MS-07 : MARSHALLTOWN 0.2 WSW : 0.00 / 0.0 / MM / MM
IA-CG-13 : MASON CITY 4.2 N : 0.00 / 0.0 / MM / MM
IA-DV-11 : MILTON 4.8 SSW : 0.00 / 0.0 / MM / MM
IA-CL-03 : MURRAY 0.5 N : 0.00 / 0.0 / 0.0 / 0.00
IA-CL-04 : MURRAY 1.7 W : 0.00 / 0.0 / 0.0 / 0.00
IA-TY-02 : NEW MARKET 4.7 N : 0.00 / 0.0 / MM / MM
IA-AP-09 : NUMA 1.7 W : 0.00 / 0.0 / MM / MM
IA-BN-03 : OGDEN 1.6 SE : 0.00 / 0.0 / MM / MM
IA-CL-09 : OSCEOLA 2.5 N : 0.00 / 0.0 / MM / MM
IA-CL-02 : OSCEOLA 2.5 WSW : 0.00 / 0.0 / MM / MM
IA-WP-13 : OTTUMWA 2.2 ENE : 0.00 / 0.0 / MM / MM
IA-CG-14 : ROCKWELL 0.7 NNW : 0.00 / 0.0 / MM / MM
IA-LC-17 : RUSSELL 4.4 SSE : 0.00 / 0.0 / MM / MM
IA-SC-07 : SAC CITY 0.6 SSW : 0.00 / 0.0 / MM / MM
IA-WY-03 : SEYMOUR 1.7 W : 0.00 / 0.0 / MM / MM
IA-MD-06 : ST CHARLES 1.1 NW : 0.00 / 0.0 / MM / MM
IA-SR-49 : STORY CITY 0.4 NW : 0.00 / 0.0 / MM / MM
IA-CG-07 : SWALEDALE 0.0 WNW : 0.00 / 0.0 / MM / MM
IA-KS-06 : SWEA CITY 4.0 NW : 0.00 / 0.0 / MM / MM
IA-PK-125 : URBANDALE 1.0 NNE : 0.00 / 0.0 / MM / MM
IA-TM-04 : VINING 0.2 ENE : 0.00 / 0.0 / MM / MM
IA-BH-06 : WATERLOO 1.9 SSE : 0.00 / 0.0 / MM / MM
IA-DL-33 : WAUKEE 1.6 N : 0.00 / 0.0 / MM / MM
IA-DL-28 : WAUKEE 3.0 SSW : 0.00 / 0.0 / MM / MM
IA-HM-01 : WEBSTER CITY 0.5 NW : 0.00 / 0.0 / MM / MM
IA-HM-04 : WEBSTER CITY 0.8 SSW : 0.00 / 0.0 / MM / MM
IA-PA-05 : WEST BEND 5.4 W : 0.00 / 0.0 / MM / MM
IA-LC-10 : WILLIAMSON 0.3 N : 0.00 / 0.0 / MM / MM
.END

$$